W6DSP Weather Reports


Display with metric or nautical units.
time (UTC)temp
F
wind
direction
speed
MPH
gust
MPH
rain 1hr
in
rain 24hr
in
rain mn
in
humidity
%
barometer
mb
20260902225531 86 173 0.0 0.0 0.00 0.00 0.00 80 1013.6
20260902224251 88 178 0.0 2.0 0.00 0.00 0.00 77 1013.6
20260902221837 89 62 0.0 0.0 0.00 0.00 0.00 78 1013.6
20260902215413 90 192 0.0 4.0 0.00 0.00 0.00 72 1013.6
20260902211839 92 59 0.0 6.0 0.00 0.00 0.00 68 1013.8
20260902205400 93 246 0.0 7.0 0.00 0.00 0.00 64 1013.8
20260902200520 93 68 1.0 11.0 0.00 0.00 0.00 66 1014.1
20260902195330 93 267 1.0 11.0 0.00 0.00 0.00 65 1014.1
20260902184124 93 72 1.0 6.0 0.00 0.00 0.00 66 1014.6
20260902180526 92 291 1.0 9.0 0.00 0.00 0.00 64 1014.9
20260902175308 92 164 1.0 8.0 0.00 0.00 0.00 65 1015.0
20260902171634 91 212 1.0 9.0 0.00 0.00 0.00 70 1015.3
20260902170404 91 89 1.0 8.0 0.00 0.00 0.00 67 1015.4
20260902165156 91 127 1.0 8.0 0.00 0.00 0.00 68 1015.5
20260902163928 90 173 1.0 7.0 0.00 0.00 0.00 67 1015.6
20260902162649 90 67 1.0 8.0 0.00 0.00 0.00 71 1015.7
20260902161455 89 147 1.0 9.0 0.00 0.00 0.00 69 1015.8
20260902153807 88 217 1.0 8.0 0.00 0.00 0.00 72 1015.8
20260902143826 85 319 0.0 4.0 0.00 0.00 0.00 77 1015.9
20260902133657 79 173 0.0 4.0 0.00 0.00 0.00 85 1016.0
20260902132458 77 53 0.0 4.0 0.00 0.00 0.00 91 1016.3
20260902131317 76 151 0.0 0.0 0.00 0.00 0.00 93 1016.4
20260902123653 73 257 0.0 2.0 0.00 0.00 0.00 94 1016.2
20260902120114 72 183 0.0 0.0 0.00 0.00 0.00 94 1016.4
20260902113656 71 183 0.0 0.0 0.00 0.00 0.00 93 1016.2
20260902110011 71 183 0.0 0.0 0.00 0.00 0.00 93 1015.9
20260902104735 71 183 0.0 0.0 0.00 0.00 0.00 93 1015.7
20260902103512 71 183 0.0 0.0 0.00 0.00 0.00 93 1015.6
20260902102317 71 183 0.0 0.0 0.00 0.00 0.00 93 1015.6
20260902101142 71 183 0.0 0.0 0.00 0.00 0.00 93 1015.4
20260902095956 72 183 0.0 0.0 0.00 0.00 0.00 93 1015.3
20260902085859 72 183 0.0 0.0 0.00 0.00 0.00 93 1015.2
20260902082220 73 183 0.0 0.0 0.00 0.00 0.00 93 1015.2
20260902080958 73 183 0.0 0.0 0.00 0.00 0.00 93 1015.2
20260902075812 73 183 0.0 0.0 0.00 0.00 0.00 93 1015.2
20260902063423 75 183 0.0 0.0 0.00 0.00 0.00 93 1015.1
20260902062245 75 183 0.0 0.0 0.00 0.00 0.00 93 1015.2
20260902055753 75 183 0.0 0.0 0.00 0.00 0.00 93 1015.3
20260902053418 75 210 0.0 0.0 0.00 0.00 0.00 93 1015.3
20260902052236 76 210 0.0 0.0 0.00 0.00 0.00 92 1015.3
20260902045831 76 210 0.0 0.0 0.00 0.00 0.00 92 1015.2
20260902042137 77 213 0.0 0.0 0.00 0.00 0.00 92 1015.2
20260902041003 77 210 0.0 0.0 0.00 0.00 0.00 92 1015.3
20260902035745 77 169 0.0 1.0 0.00 0.00 0.00 92 1015.2
20260902033330 77 315 0.0 0.0 0.00 0.00 0.00 92 1015.2
20260902032130 78 315 0.0 0.0 0.00 0.00 0.00 92 1015.2
20260902024436 78 315 0.0 0.0 0.00 0.00 0.00 92 1015.2
20260902022030 78 315 0.0 0.0 0.00 0.00 0.00 92 1015.1
20260902020853 79 315 0.0 0.0 0.00 0.00 0.00 92 1015.1
20260902005710 79 315 0.0 0.0 0.00 0.00 0.00 91 1014.8
20260902003240 80 315 0.0 0.0 0.00 0.00 0.00 91 1014.8
20260902002004 81 315 0.0 0.0 0.00 0.00 0.00 90 1014.7